EW3662 Weather Reports


time (UTC)temp
C
wind
direction
speed
KPH
gust
KPH
rain 1hr
cm
rain 24hr
cm
rain mn
cm
humidity
%
barometer
mb
20260505004122 12 0 0.0 4.8 0.08 0.08 0.08 75 1010.1
20260505003621 12 0 0.0 0.0 0.08 0.08 0.08 73 1010.2
20260505003121 13 0 0.0 0.0 0.08 0.08 0.08 71 1010.2
20260505002621 13 0 0.0 6.4 0.05 0.05 0.05 68 1010.2
20260505002122 13 0 1.6 6.4 0.05 0.05 0.05 67 1010.1
20260505001854 13 0 3.2 8.0 0.03 0.03 0.03 64 1010.1
20260505001351 14 0 4.8 9.7 0.00 0.00 0.00 59 1010.0
20260505000619 14 0 9.7 22.5 0.00 0.00 0.00 55 1009.9
20260505000120 15 0 9.7 22.5 0.00 0.00 0.00 53 1009.7
20260504235618 15 174 11.3 24.1 0.00 0.00 0.00 52 1009.6
20260504235118 15 0 12.9 25.7 0.00 0.00 0.00 51 1009.3
20260504234617 16 0 9.7 25.7 0.00 0.00 0.00 47 1009.2
20260504234117 16 0 6.4 17.7 0.00 0.00 0.00 43 1009.1
20260504233850 16 0 4.8 11.3 0.00 0.00 0.00 41 1009.0
20260504233118 17 0 3.2 6.4 0.00 0.00 0.00 41 1009.1
20260504232618 17 0 3.2 8.0 0.00 0.00 0.00 40 1009.0
20260504232118 17 0 3.2 8.0 0.00 0.00 0.00 40 1008.9
20260504231617 17 0 3.2 6.4 0.00 0.00 0.00 40 1008.7
20260504231117 17 0 4.8 9.7 0.00 0.00 0.00 39 1008.5
20260504230619 17 0 4.8 9.7 0.00 0.00 0.00 40 1008.5
20260504230117 17 0 4.8 9.7 0.00 0.00 0.00 39 1008.4
20260504225617 17 0 4.8 11.3 0.00 0.00 0.00 39 1008.2
20260504225116 17 0 6.4 11.3 0.00 0.00 0.00 38 1008.2
20260504224616 18 0 6.4 16.1 0.00 0.00 0.00 39 1008.2
20260504224115 18 0 9.7 17.7 0.00 0.00 0.00 40 1008.1
20260504223847 18 0 8.0 17.7 0.00 0.00 0.00 37 1008.2
20260504223117 19 0 8.0 16.1 0.00 0.00 0.00 35 1008.2
20260504222846 19 0 8.0 16.1 0.00 0.00 0.00 36 1008.4
20260504222115 19 0 6.4 14.5 0.00 0.00 0.00 36 1008.3
20260504222005 18 0 8.0 17.7 0.00 0.00 0.00 40 1008.3
20260504221853 19 0 8.0 14.5 0.00 0.00 0.00 40 1008.3
20260504220614 17 0 9.7 17.7 0.00 0.00 0.00 42 1008.4
20260504220114 17 0 8.0 17.7 0.00 0.00 0.00 40 1008.5
20260504215614 17 0 8.0 22.5 0.00 0.00 0.00 42 1008.6
20260504215113 17 0 9.7 22.5 0.00 0.00 0.00 42 1008.6
20260504214615 17 0 12.9 22.5 0.00 0.00 0.00 41 1008.9
20260504214346 17 0 16.1 24.1 0.00 0.00 0.00 40 1009.0
20260504213614 17 0 14.5 24.1 0.00 0.00 0.00 38 1008.9
20260504213115 17 0 11.3 20.9 0.00 0.00 0.00 38 1008.6
20260504212613 17 0 11.3 20.9 0.00 0.00 0.00 39 1008.4
20260504212113 17 0 14.5 35.4 0.00 0.00 0.00 39 1008.3
20260504211611 17 0 19.3 35.4 0.00 0.00 0.00 40 1008.3
20260504211112 17 0 22.5 40.2 0.00 0.00 0.00 41 1008.5
20260504210611 17 0 22.5 40.2 0.00 0.00 0.00 40 1008.7
20260504210112 17 0 19.3 35.4 0.00 0.00 0.00 39 1008.6
20260504205610 17 0 14.5 27.4 0.00 0.00 0.00 39 1008.7
20260504205342 17 0 14.5 27.4 0.00 0.00 0.00 38 1008.7
20260504204842 17 0 11.3 20.9 0.00 0.00 0.00 39 1008.9
20260504204109 17 0 11.3 20.9 0.00 0.00 0.00 38 1008.7
20260504203609 17 0 11.3 20.9 0.00 0.00 0.00 38 1008.7
20260504203108 17 0 11.3 22.5 0.00 0.00 0.00 38 1008.7
20260504202608 17 0 12.9 24.1 0.00 0.00 0.00 39 1009.1
20260504202339 17 0 14.5 24.1 0.00 0.00 0.00 40 1009.3
20260504201610 17 0 14.5 25.7 0.00 0.00 0.00 41 1009.4
20260504201110 17 0 16.1 30.6 0.00 0.00 0.00 38 1009.6
20260504200609 17 0 16.1 30.6 0.00 0.00 0.00 38 1009.6
20260504200110 17 0 17.7 30.6 0.00 0.00 0.00 38 1009.6
20260504195609 17 0 14.5 30.6 0.00 0.00 0.00 35 1009.3
20260504195109 17 0 14.5 29.0 0.00 0.00 0.00 38 1009.3
20260504194607 18 0 14.5 29.0 0.00 0.00 0.00 37 1009.2
20260504194107 18 0 12.9 25.7 0.00 0.00 0.00 38 1008.9
20260504193607 18 0 11.3 22.5 0.00 0.00 0.00 32 1008.4
20260504193113 18 0 12.9 25.7 0.00 0.00 0.00 32 1008.2
20260504193108 18 0 11.3 22.5 0.00 0.00 0.00 32 1008.3
20260504192108 18 0 12.9 27.4 0.00 0.00 0.00 32 1008.3
20260504191609 18 0 8.0 27.4 0.00 0.00 0.00 30 1008.4
20260504191109 19 0 9.7 22.5 0.00 0.00 0.00 30 1008.2
20260504190838 19 0 12.9 24.1 0.00 0.00 0.00 29 1008.1
20260504190108 20 0 11.3 27.4 0.00 0.00 0.00 28 1008.1
20260504185607 20 0 8.0 27.4 0.00 0.00 0.00 26 1007.9
20260504185107 21 0 6.4 11.3 0.00 0.00 0.00 27 1007.5
20260504184608 21 0 4.8 11.3 0.00 0.00 0.00 26 1007.6
20260504184108 21 0 4.8 14.5 0.00 0.00 0.00 26 1007.6
20260504183606 21 0 9.7 22.5 0.00 0.00 0.00 24 1007.6
20260504183337 21 0 9.7 22.5 0.00 0.00 0.00 25 1007.5
20260504182604 22 0 9.7 20.9 0.00 0.00 0.00 25 1007.6
20260504182110 22 0 4.8 16.1 0.00 0.00 0.00 23 1007.6
20260504182105 22 0 8.0 20.9 0.00 0.00 0.00 24 1007.6
20260504181106 22 0 8.0 22.5 0.00 0.00 0.00 22 1007.7
20260504180604 22 0 11.3 35.4 0.00 0.00 0.00 23 1007.6
20260504180110 22 0 11.3 22.5 0.00 0.00 0.00 23 1007.6
20260504180106 22 0 11.3 35.4 0.00 0.00 0.00 22 1007.2
20260504175106 23 0 12.9 25.7 0.00 0.00 0.00 23 1007.6
20260504174605 22 0 14.5 25.7 0.00 0.00 0.00 23 1007.7
20260504174105 22 0 14.5 24.1 0.00 0.00 0.00 23 1007.7
20260504173605 22 0 14.5 29.0 0.00 0.00 0.00 23 1007.7
20260504173105 22 0 12.9 29.0 0.00 0.00 0.00 23 1007.7
20260504172607 22 0 12.9 22.5 0.00 0.00 0.00 23 1007.8
20260504172338 22 0 11.3 22.5 0.00 0.00 0.00 24 1007.8
20260504171604 22 0 9.7 22.5 0.00 0.00 0.00 26 1007.8
20260504171104 22 0 9.7 22.5 0.00 0.00 0.00 27 1007.9
20260504170835 22 0 6.4 19.3 0.00 0.00 0.00 24 1007.9
20260504170104 22 0 6.4 14.5 0.00 0.00 0.00 25 1007.9
20260504151103 13 0 1.6 6.4 0.00 0.00 0.00 48 1008.9
20260504150601 12 282 0.0 3.2 0.00 0.00 0.00 45 1008.9
20260504141101 8 287 3.2 6.4 0.00 0.00 0.00 57 1009.3
20260504140602 8 297 1.6 4.8 0.00 0.00 0.00 57 1009.3
20260504130558 6 0 1.6 3.2 0.00 0.00 0.00 66 1009.3
20260504120317 5 0 1.6 4.8 0.00 0.00 0.00 66 1009.1
20260504100521 6 284 0.0 3.2 0.00 0.00 0.00 62 1009.6
20260504081517 7 297 1.6 3.2 0.00 0.00 0.00 55 1010.5
20260504081014 7 0 1.6 3.2 0.00 0.00 0.00 55 1010.5
20260504080515 7 0 1.6 3.2 0.00 0.00 0.00 56 1010.6
20260504050501 13 0 6.4 11.3 0.00 0.00 0.00 38 1011.4
20260504045959 13 0 6.4 11.3 0.00 0.00 0.00 39 1011.4
20260504045459 14 0 4.8 9.7 0.00 0.00 0.00 39 1011.5
20260504044959 14 0 4.8 9.7 0.00 0.00 0.00 37 1011.5
20260504044457 14 0 6.4 16.1 0.00 0.00 0.00 37 1011.4
20260504043957 15 0 4.8 16.1 0.00 0.00 0.00 36 1011.3
20260504043458 15 0 3.2 14.5 0.00 0.00 0.00 36 1011.5
20260504042959 15 0 4.8 14.5 0.00 0.00 0.00 36 1011.4
20260504042729 15 0 6.4 16.1 0.00 0.00 0.00 36 1011.4
20260504041959 15 0 8.0 19.3 0.00 0.00 0.00 35 1011.2
20260504041459 16 0 11.3 27.4 0.00 0.00 0.00 34 1010.9
20260504041229 16 0 11.3 27.4 0.00 0.00 0.00 33 1011.1
20260504040458 16 0 12.9 24.1 0.00 0.00 0.00 32 1011.3
20260504035955 16 0 12.9 24.1 0.00 0.00 0.00 33 1011.4
20260504035456 16 0 11.3 24.1 0.00 0.00 0.00 32 1011.2
20260504034956 16 0 9.7 24.1 0.00 0.00 0.00 33 1011.3
20260504034500 16 0 11.3 24.1 0.00 0.00 0.00 32 1011.2
20260504034455 16 0 11.3 24.1 0.00 0.00 0.00 32 1011.3
20260504033456 16 0 9.7 24.1 0.00 0.00 0.00 31 1011.2
20260504032957 16 0 11.3 20.9 0.00 0.00 0.00 30 1010.9
20260504032457 16 0 11.3 22.5 0.00 0.00 0.00 28 1010.7
20260504031955 16 0 9.7 22.5 0.00 0.00 0.00 29 1010.7
20260504031455 16 0 6.4 12.9 0.00 0.00 0.00 31 1010.7
20260504030955 16 0 4.8 12.9 0.00 0.00 0.00 33 1010.6
20260504030456 16 0 1.6 9.7 0.00 0.00 0.00 35 1010.6
20260504025957 16 0 1.6 9.7 0.00 0.00 0.00 34 1010.4
20260504025456 16 0 3.2 9.7 0.00 0.00 0.00 34 1010.4
20260504024955 17 0 1.6 8.0 0.00 0.00 0.00 35 1010.2
20260504024456 17 0 0.0 3.2 0.00 0.00 0.00 33 1010.0
20260504023955 17 0 0.0 3.2 0.00 0.00 0.00 34 1010.0
20260504023455 17 0 1.6 6.4 0.00 0.00 0.00 33 1010.1
20260504022953 18 0 3.2 6.4 0.00 0.00 0.00 34 1010.1
20260504022452 18 0 1.6 4.8 0.00 0.00 0.00 30 1010.1
20260504021953 18 0 1.6 6.4 0.00 0.00 0.00 29 1010.0
20260504021454 18 0 1.6 8.0 0.00 0.00 0.00 30 1010.1
20260504020954 18 0 1.6 8.0 0.00 0.00 0.00 32 1010.1
20260504020454 19 0 1.6 8.0 0.00 0.00 0.00 28 1010.0
20260504020224 19 0 3.2 8.0 0.00 0.00 0.00 29 1010.0
20260504015724 19 0 1.6 6.4 0.00 0.00 0.00 27 1009.8
20260504015222 19 0 0.0 0.0 0.00 0.00 0.00 28 1010.0
20260504015108 19 0 0.0 3.2 0.00 0.00 0.00 29 1010.0
20260504013952 20 0 1.6 4.8 0.00 0.00 0.00 26 1009.9
20260504013449 20 0 3.2 4.8 0.00 0.00 0.00 27 1009.9
20260504012950 20 0 1.6 4.8 0.00 0.00 0.00 26 1009.9
20260504012449 20 0 3.2 8.0 0.00 0.00 0.00 26 1010.0
20260504011948 20 0 4.8 8.0 0.00 0.00 0.00 26 1010.0
20260504011448 20 0 3.2 8.0 0.00 0.00 0.00 25 1009.9
20260504010950 20 0 3.2 6.4 0.00 0.00 0.00 25 1010.0
20260504010449 20 0 1.6 6.4 0.00 0.00 0.00 25 1010.0
20260504005949 20 0 0.0 4.8 0.00 0.00 0.00 24 1010.1
20260504005449 21 0 1.6 8.0 0.00 0.00 0.00 24 1010.1
20260504004950 21 200 3.2 8.0 0.00 0.00 0.00 23 1010.1